Temperature
20 20 20 19 19 19 19 19 19 18 18 18 18 18 17 17 17 17 17 17 17 17 16 16 16 16 16 16 16 16 16 16 15 15 15 15 15 15 15 15 15 15 15
20 20 19 19 19 19 19 19 18 18 18 18 18 17 17 17 17 17 16 17 17 16 16 16 16 16 16 16 16 16 16 15 15 15 15 15 15 15 15 15 15 14 14
20 20 19 19 19 19 19 18 18 18 18 18 17 17 17 17 17 16 16 16 16 16 16 16 16 16 16 16 15 15 15 15 15 15 15 15 15 14 14 14 14 14 14
20 20 19 19 19 19 18 18 18 18 18 17 17 17 17 17 16 16 16 16 16 16 16 16 16 15 15 15 15 15 15 15 15 15 15 14 14 14 14 14 14 14 14
20 20 19 19 19 19 18 18 18 18 17 17 17 17 16 16 16 16 16 16 16 16 16 15 15 15 15 15 15 15 15 15 15 14 14 14 14 14 14 14 14 14 14
20 19 19 19 18 18 18 18 17 17 17 17 17 16 16 16 16 16 16 16 15 15 15 15 15 15 15 15 15 14 14 14 14 14 14 14 14 14 14 14 14 13 13
19 19 18 18 18 18 18 17 17 17 17 17 16 16 16 16 16 15 15 15 15 15 15 15 15 15 15 15 14 14 14 14 14 14 14 14 14 14 14 13 13 13 13
19 18 18 18 18 18 17 17 17 17 17 16 16 16 16 16 15 15 15 15 15 15 15 15 15 15 15 14 14 14 14 14 14 14 14 14 14 13 13 13 13 13 13
19 18 18 18 18 17 17 17 17 17 16 16 16 16 16 16 15 15 15 15 15 15 15 14 14 14 14 14 14 14 14 14 14 13 13 13 13 13 13 13 13 13 13
18 18 18 17 17 17 17 16 16 16 16 16 16 15 15 15 15 15 15 14 14 14 14 14 14 14 14 14 14 14 13 14 13 13 13 13 13 13 13 13 13 12 12
18 17 17 17 17 17 16 16 16 16 15 15 15 15 15 15 15 15 15 14 14 14 14 14 14 14 14 14 13 13 13 13 13 13 13 13 13 13 13 13 12 12 12
17 17 17 16 16 16 16 16 15 15 15 15 15 15 15 14 14 14 14 14 14 14 14 13 13 13 13 13 13 13 13 13 13 13 13 13 13 12 12 12 12 12 12
17 16 16 16 16 15 15 15 15 15 15 14 14 14 14 14 14 14 14 13 13 13 13 13 13 13 13 13 13 13 13 13 12 12 12 12 12 12 12 12 12 12 12
16 16 16 15 15 15 15 15 15 14 14 14 14 14 14 14 14 13 13 13 13 13 13 13 13 13 13 13 13 12 12 12 12 12 12 12 12 12 12 12 12 12 12
16 15 15 15 15 15 14 14 14 14 14 14 14 14 14 14 13 13 13 13 13 13 12 12 12 12 12 12 12 12 12 12 12 12 12 12 12 12 12 12 12 11 11
15 15 15 15 14 14 14 14 14 14 14 13 13 13 13 13 13 13 13 12 12 12 12 12 12 12 12 12 12 12 12 12 12 12 12 11 11 11 11 11 11 11 11
15 14 14 14 14 14 14 14 14 13 13 13 13 13 13 13 13 13 12 12 12 12 12 12 12 12 12 11 11 11 11 11 11 11 11 11 11 11 11 11 11 11 11
14 14 14 14 14 14 13 13 13 13 13 13 13 13 13 12 12 12 12 12 12 12 12 11 11 11 11 11 11 11 11 11 11 11 11 11 11 11 11 11 11 11 11
14 14 14 13 13 13 13 13 13 13 13 13 13 12 12 12 12 12 12 12 11 11 11 11 11 11 11 11 11 11 11 11 11 10 10 11 11 10 10 10 10 11 11
13 13 13 13 13 13 13 13 13 13 12 12 12 12 12 12 12 12 11 11 11 11 11 11 11 11 11 11 10 10 10 10 10 10 10 10 10 10 10 10 10 10 10
13 13 13 13 13 13 12 12 12 12 12 12 12 12 12 11 11 11 11 11 11 11 11 10 10 10 10 10 10 10 10 10 10 10 10 10 10 10 10 10 10 10 10
12 12 12 12 12 12 12 12 12 12 12 12 11 11 11 11 11 11 11 11 11 10 10 10 10 10 10 10 10 10 10 10 10 10 10 10 10 10 10 10 10 10 10
12 12 12 12 12 12 12 12 12 11 11 11 11 11 11 11 11 11 11 11 10 10 10 10 10 10 10 9 9 9 9 10 10 10 10 10 10 10 10 10 10 10 10
12 12 12 12 12 12 12 11 11 11 11 11 11 11 11 11 10 10 10 10 10 10 10 10 9 9 9 9 9 9 9 9 9 9 9 10 10 10 9 9 9 9 9
12 12 12 12 12 12 11 11 11 11 11 11 11 11 10 10 10 10 10 10 10 9 9 9 9 9 9 9 9 9 9 9 9 9 9 9 9 9 9 9 9 9 9
12 12 12 12 11 11 11 11 11 11 11 10 10 10 10 10 10 10 10 10 9 9 9 9 9 9 9 9 9 9 9 9 9 9 9 9 9 9 9 9 9 9 9
Wind_Speed
7 6 6 6 5 4 4 4 4 3 3 3 3 3 3 2 2 2 1 1 1 0 0 1 0 1 1 1 1 1 2 3 3 2 1 1 1 1 2 3 5 6 6
7 6 6 5 5 5 5 4 4 4 3 3 3 3 3 3 2 2 2 1 2 1 1 1 0 0 0 1 1 2 2 2 3 2 1 1 1 2 2 2 3 5 6
7 7 6 5 5 5 5 5 4 4 3 3 3 3 3 3 3 3 3 2 2 2 2 2 2 1 0 1 1 1 2 2 2 3 2 1 1 1 0 1 2 2 4
6 6 6 5 6 5 4 4 4 4 4 4 3 3 3 3 3 3 3 3 3 3 3 3 3 3 3 3 2 2 2 1 2 2 1 1 1 1 0 1 1 2 3
6 5 5 5 5 4 4 3 3 3 4 4 4 3 3 3 4 4 4 4 3 3 3 3 3 4 5 4 3 3 3 2 2 2 2 1 1 1 2 2 2 2 2
6 5 4 4 4 4 4 4 3 3 2 2 3 3 4 4 5 6 5 3 3 4 4 3 4 3 4 5 4 5 5 5 5 4 3 3 4 3 3 2 2 1 2
5 5 4 4 4 4 4 3 3 3 3 3 3 3 3 5 5 5 6 4 4 4 4 4 4 4 4 3 3 3 4 6 7 6 6 6 5 5 4 3 3 3 4
5 4 4 4 4 3 3 3 3 3 3 3 3 3 3 4 5 5 5 4 3 4 5 5 5 4 4 4 3 3 3 4 5 6 6 7 7 6 6 6 5 4 3
4 4 4 5 4 3 3 3 3 2 2 3 3 3 3 4 5 5 4 3 3 4 4 4 5 5 5 5 4 3 4 4 5 6 7 7 7 7 5 3 1 1 2
6 6 5 5 5 4 4 3 2 2 3 2 2 3 4 4 4 5 5 3 3 3 3 3 4 5 5 5 5 4 5 5 3 3 3 4 5 5 6 6 5 4 3
5 4 4 4 4 4 3 3 2 2 2 2 2 2 2 3 3 4 4 3 4 3 3 3 3 5 6 6 6 5 7 5 3 3 3 4 4 4 4 5 5 6 5
4 4 3 4 4 3 3 2 2 2 1 1 1 2 2 1 2 2 2 3 3 3 3 3 3 5 5 5 4 5 6 4 2 2 3 4 4 4 5 5 6 6 6
4 3 3 2 2 3 3 3 2 2 2 2 1 2 2 1 1 1 2 2 2 2 3 4 4 5 4 3 4 4 3 2 2 3 4 5 5 5 4 3 3 3 4
3 2 2 2 2 2 2 2 2 2 2 2 2 3 2 2 1 1 1 1 2 2 3 3 3 3 2 2 2 2 2 2 3 4 4 4 3 2 3 3 3 2 2
2 1 1 2 2 1 1 1 2 3 4 4 4 4 3 3 5 5 3 2 2 2 1 1 1 1 1 1 1 2 2 2 3 3 3 3 3 3 3 3 3 2 3
2 1 1 1 1 1 1 1 2 1 2 3 5 4 4 5 5 5 5 6 5 3 2 1 2 2 3 3 3 3 2 3 3 3 3 3 3 3 3 3 2 3 4
3 2 1 1 1 1 2 2 1 2 3 3 3 4 6 6 5 5 5 5 4 4 2 3 3 3 3 3 3 3 3 3 3 3 3 3 3 3 2 2 3 3 4
2 1 2 1 1 2 2 2 2 2 2 3 3 3 4 5 5 4 3 2 1 1 2 3 4 3 3 3 3 3 3 3 3 3 3 3 3 3 3 3 3 4 4
2 1 1 1 1 1 1 1 1 2 2 2 2 2 3 2 2 2 2 2 3 3 3 3 3 3 3 3 3 3 3 3 3 3 3 3 3 3 3 4 4 5 4
1 2 2 2 1 1 1 1 1 2 2 2 2 2 1 1 0 1 2 2 3 3 3 3 3 3 3 3 2 2 2 3 3 3 4 4 4 3 4 4 4 4 4
1 2 2 2 2 3 2 3 2 2 2 2 3 4 4 3 3 3 3 3 3 3 3 3 3 3 3 2 2 3 4 4 4 4 4 4 4 4 4 4 4 4 3
2 2 2 2 2 2 3 3 2 2 3 3 3 3 4 3 3 3 3 3 4 4 4 3 3 3 3 3 4 4 4 4 4 4 5 4 4 4 4 4 4 3 3
2 2 2 2 2 2 2 2 2 3 3 3 3 2 2 3 3 3 3 3 3 4 4 3 3 3 3 3 3 3 4 5 5 5 5 4 4 4 3 4 4 4 4
2 2 2 2 2 2 3 3 3 3 3 3 3 3 3 3 3 3 3 2 2 3 3 3 4 4 4 2 2 3 3 4 5 5 6 5 4 4 3 3 3 4 4
2 2 3 3 3 3 3 3 3 3 3 3 3 2 2 2 2 2 2 2 2 2 3 3 3 3 3 4 3 3 4 5 5 4 3 3 3 4 3 4 3 3 3
2 2 2 2 2 2 2 2 2 2 2 2 2 2 2 2 2 2 2 2 2 2 2 2 3 3 3 3 4 4 4 4 4 3 2 1 2 3 3 3 3 2 3
Wind_Direction
182 183 187 190 183 171 173 178 176 178 176 170 170 163 167 171 164 153 168 156 139 114 87 123 247 236 187 204 167 155 158 153 181 257 261 246 190 213 203 200 208 204 213
184 179 181 180 175 172 177 184 181 182 187 178 167 165 179 182 173 171 190 174 166 174 192 131 204 136 244 207 173 177 183 172 169 210 262 273 237 220 207 209 209 215 217
174 171 174 173 172 179 185 186 185 184 187 184 166 169 184 190 188 189 189 186 190 204 207 197 215 174 206 245 213 208 209 186 161 171 225 239 248 240 208 255 236 240 234
170 172 177 182 182 184 182 178 181 182 183 186 186 190 192 193 192 194 192 193 204 217 218 211 212 203 205 205 214 216 202 175 153 159 196 229 241 258 143 232 271 261 245
166 170 183 182 176 172 169 177 178 181 189 193 192 201 204 205 207 197 197 203 209 224 238 233 225 216 211 208 206 205 194 183 180 186 205 209 230 214 228 233 236 260 260
159 166 169 170 172 172 176 179 175 183 189 183 193 202 218 228 213 206 200 206 212 218 234 247 244 227 224 219 214 205 196 194 196 196 207 215 227 223 225 220 217 212 268
155 160 163 160 169 181 183 175 187 195 187 192 203 202 221 229 218 213 207 204 214 224 227 232 239 228 222 226 229 233 235 225 205 193 203 218 215 216 205 215 217 213 232
149 159 168 164 168 172 165 176 201 195 194 204 214 217 222 231 217 213 208 206 224 234 231 225 222 230 230 209 216 238 253 252 228 212 211 221 218 211 200 205 215 227 260
162 177 180 174 170 166 175 193 201 193 204 217 218 217 217 235 217 206 197 202 233 249 249 232 213 219 226 203 201 228 254 272 264 232 222 225 225 218 193 165 182 185 259
192 190 183 174 171 177 193 205 202 190 209 221 230 227 221 229 228 213 198 198 228 246 261 253 222 215 222 206 201 209 233 253 259 273 260 254 247 241 216 195 195 203 227
183 175 172 174 187 189 194 198 191 203 217 234 241 256 242 237 235 222 201 196 213 230 244 250 244 227 228 227 216 217 229 231 224 231 253 258 256 251 240 224 210 200 210
161 160 172 184 193 183 176 193 199 199 219 248 259 286 294 279 248 241 209 203 202 202 231 241 240 236 241 242 236 233 232 225 216 225 245 253 252 247 243 237 230 223 218
150 158 176 181 186 176 173 189 204 197 199 238 238 246 267 267 243 195 193 211 220 224 243 247 248 241 237 239 245 243 235 211 213 230 244 250 245 243 243 246 247 240 249
152 173 176 174 199 208 200 193 194 204 213 226 231 236 242 234 232 233 227 241 250 258 280 283 274 262 261 260 266 258 236 219 219 239 251 256 257 257 249 237 242 239 251
146 159 182 195 200 208 235 237 218 222 216 214 229 222 214 233 239 216 198 216 222 228 249 323 329 319 301 296 289 277 256 237 237 250 251 264 267 262 259 242 229 222 225
146 160 186 194 187 180 182 339 352 291 281 250 237 227 234 235 236 226 224 227 229 205 161 222 245 248 249 254 258 267 255 241 241 244 247 250 254 253 259 253 230 219 232
164 183 193 189 185 192 196 192 263 326 338 321 281 252 238 243 239 233 231 230 221 176 188 226 234 240 247 248 245 247 256 261 254 249 250 254 257 256 254 259 246 241 242
164 191 189 205 212 214 217 217 210 223 270 296 303 275 251 246 247 240 211 158 217 195 215 226 236 240 242 245 246 250 259 270 271 266 259 254 252 248 251 254 248 241 239
174 198 197 200 213 213 218 219 223 231 242 259 285 308 275 255 272 263 166 174 211 230 233 233 235 239 250 250 247 245 246 256 266 266 262 255 251 246 251 252 249 246 238
210 218 205 195 207 213 228 230 238 236 240 244 245 249 238 138 192 243 215 216 218 235 241 233 232 230 242 251 248 243 252 261 259 257 258 252 247 241 244 251 252 250 243
224 244 237 221 223 223 221 225 227 223 221 234 247 238 203 196 213 218 215 218 221 228 234 232 230 226 230 234 239 244 246 255 254 259 261 256 253 251 251 248 251 249 247
221 235 230 223 225 223 221 220 220 222 228 234 253 250 223 220 223 225 226 230 230 227 222 218 227 230 226 221 223 226 234 246 256 262 262 260 257 254 250 249 253 248 238
225 237 248 242 226 229 230 233 230 228 234 239 243 242 227 232 236 234 236 243 241 236 227 212 215 230 232 223 218 219 230 245 250 253 255 256 261 260 256 253 252 248 246
231 243 241 239 234 226 228 235 234 233 234 238 242 237 230 225 229 234 239 240 236 245 237 223 219 220 214 218 231 234 244 257 263 260 249 245 249 252 254 259 258 249 245
236 239 236 236 235 233 232 237 239 236 235 231 230 232 230 222 224 236 246 242 232 239 250 239 218 211 214 222 232 254 271 276 282 279 259 241 246 249 248 250 252 250 241
231 229 226 227 227 221 220 227 242 242 235 229 220 216 214 219 224 231 242 244 239 240 247 237 219 213 227 233 249 265 280 287 289 292 285 239 240 255 256 253 248 243 238
Height
1510 1511 1512 1513 1515 1516 1516 1516 1517 1517 1517 1518 1518 1518 1518 1519 1519 1519 1518 1518 1518 1518 1518 1518 1517 1517 1517 1517 1517 1517 1517 1518 1517 1518 1518 1519 1519 1519 1519 1519 1519 1519 1519
1508 1509 1510 1512 1513 1514 1514 1514 1515 1515 1515 1516 1516 1516 1516 1517 1517 1517 1516 1516 1516 1516 1516 1516 1515 1515 1515 1515 1515 1515 1515 1516 1516 1516 1516 1517 1517 1517 1517 1517 1517 1517 1517
1506 1508 1509 1510 1511 1511 1512 1512 1513 1513 1513 1513 1514 1514 1514 1514 1514 1514 1514 1514 1514 1514 1514 1514 1513 1513 1513 1513 1513 1513 1514 1514 1514 1514 1514 1515 1515 1515 1515 1515 1515 1515 1515
1504 1505 1506 1508 1508 1509 1510 1510 1510 1510 1511 1511 1511 1512 1512 1512 1512 1512 1512 1512 1512 1512 1512 1512 1511 1511 1511 1511 1511 1511 1512 1512 1512 1512 1512 1512 1512 1513 1513 1512 1512 1512 1512
1502 1503 1504 1506 1506 1507 1507 1507 1508 1508 1508 1508 1509 1509 1509 1509 1509 1509 1509 1509 1509 1509 1509 1509 1509 1509 1509 1509 1509 1509 1509 1509 1509 1510 1509 1509 1510 1510 1509 1510 1509 1509 1509
1500 1501 1502 1503 1504 1504 1505 1505 1505 1506 1506 1506 1506 1506 1506 1507 1507 1507 1506 1506 1506 1506 1505 1506 1506 1506 1506 1506 1506 1506 1506 1507 1506 1507 1507 1507 1507 1507 1507 1507 1507 1506 1506
1498 1499 1500 1501 1501 1501 1502 1503 1503 1503 1503 1503 1503 1503 1503 1504 1504 1504 1504 1503 1503 1503 1502 1502 1502 1502 1503 1503 1503 1503 1503 1503 1504 1504 1504 1503 1504 1504 1504 1504 1504 1503 1503
1496 1496 1498 1498 1498 1499 1499 1500 1500 1500 1500 1500 1500 1500 1500 1500 1500 1500 1500 1500 1500 1500 1499 1499 1499 1499 1500 1500 1500 1500 1500 1500 1500 1501 1501 1501 1501 1502 1501 1501 1501 1500 1500
1493 1493 1494 1495 1496 1496 1496 1497 1497 1497 1497 1497 1497 1497 1496 1496 1497 1497 1497 1496 1496 1496 1496 1496 1496 1496 1496 1496 1497 1496 1496 1496 1497 1497 1497 1498 1498 1498 1498 1498 1498 1497 1496
1491 1491 1492 1493 1493 1493 1494 1494 1495 1494 1494 1494 1494 1493 1493 1493 1493 1493 1492 1492 1492 1492 1492 1492 1492 1492 1492 1493 1493 1493 1492 1492 1493 1493 1493 1494 1494 1494 1494 1494 1494 1494 1493
1489 1489 1490 1491 1491 1491 1492 1492 1492 1492 1491 1491 1490 1490 1490 1489 1489 1489 1488 1488 1488 1487 1487 1488 1488 1488 1489 1489 1489 1489 1489 1489 1489 1489 1489 1490 1490 1490 1490 1490 1490 1490 1490
1486 1486 1487 1488 1489 1489 1489 1489 1489 1489 1488 1488 1487 1487 1486 1486 1486 1485 1485 1484 1484 1484 1484 1484 1484 1485 1485 1485 1485 1485 1485 1485 1485 1485 1485 1485 1485 1485 1485 1486 1486 1486 1486
1483 1484 1485 1485 1486 1486 1486 1486 1486 1485 1485 1484 1484 1483 1483 1483 1483 1483 1482 1482 1481 1481 1481 1481 1482 1481 1482 1481 1481 1481 1481 1481 1481 1480 1480 1480 1481 1481 1481 1481 1481 1481 1481
1481 1481 1482 1482 1483 1483 1483 1483 1483 1482 1482 1481 1481 1480 1480 1480 1480 1480 1479 1479 1479 1479 1478 1479 1479 1478 1478 1478 1478 1478 1478 1477 1477 1476 1476 1476 1476 1476 1475 1476 1476 1476 1477
1478 1478 1479 1479 1479 1479 1480 1480 1480 1480 1480 1479 1478 1478 1477 1476 1477 1477 1476 1476 1476 1476 1476 1476 1475 1475 1474 1474 1474 1475 1474 1474 1474 1473 1473 1472 1472 1472 1472 1472 1472 1473 1473
1475 1476 1476 1476 1476 1476 1477 1477 1477 1477 1477 1477 1476 1475 1474 1474 1474 1474 1473 1473 1473 1473 1473 1472 1472 1471 1471 1471 1471 1471 1471 1470 1470 1469 1469 1469 1468 1468 1468 1468 1469 1469 1469
1473 1473 1473 1473 1474 1474 1474 1474 1473 1474 1474 1473 1472 1472 1471 1471 1471 1470 1470 1470 1470 1469 1469 1468 1468 1468 1468 1467 1467 1467 1467 1467 1466 1466 1465 1465 1465 1464 1464 1464 1464 1464 1464
1470 1471 1471 1471 1471 1471 1471 1471 1471 1470 1470 1469 1470 1469 1469 1468 1468 1467 1467 1466 1466 1466 1465 1465 1465 1465 1464 1464 1464 1463 1463 1463 1462 1462 1461 1461 1461 1461 1460 1460 1460 1460 1460
1468 1468 1468 1469 1469 1469 1469 1469 1469 1468 1468 1467 1467 1466 1466 1465 1465 1464 1463 1463 1462 1462 1462 1462 1462 1461 1461 1461 1461 1460 1459 1458 1458 1458 1458 1457 1457 1457 1456 1456 1456 1456 1456
1466 1466 1466 1466 1466 1466 1466 1466 1466 1466 1465 1465 1464 1463 1463 1462 1462 1461 1460 1460 1460 1459 1459 1459 1458 1458 1458 1458 1457 1456 1455 1455 1454 1454 1453 1453 1453 1453 1452 1452 1452 1452 1452
1463 1463 1463 1463 1463 1463 1463 1463 1463 1463 1462 1462 1461 1461 1460 1460 1459 1458 1458 1457 1457 1456 1456 1455 1455 1454 1454 1454 1453 1452 1452 1451 1451 1450 1450 1449 1449 1448 1448 1448 1448 1448 1448
1461 1461 1461 1460 1460 1460 1460 1460 1460 1460 1459 1459 1458 1457 1457 1456 1456 1455 1455 1454 1454 1453 1453 1452 1451 1451 1450 1449 1449 1448 1448 1447 1447 1446 1446 1445 1445 1445 1444 1444 1444 1444 1444
1459 1458 1458 1458 1457 1457 1457 1457 1457 1456 1456 1455 1455 1454 1453 1453 1452 1452 1451 1451 1450 1450 1449 1448 1447 1447 1446 1445 1445 1444 1444 1443 1442 1442 1441 1441 1441 1440 1440 1439 1439 1439 1439
1456 1455 1455 1455 1454 1454 1454 1453 1453 1452 1452 1451 1451 1450 1450 1449 1449 1448 1448 1447 1446 1446 1445 1445 1444 1443 1442 1441 1441 1440 1439 1438 1438 1437 1437 1437 1436 1436 1435 1435 1435 1435 1435
1453 1452 1452 1452 1451 1451 1450 1450 1449 1448 1448 1448 1447 1447 1446 1446 1445 1445 1445 1444 1443 1442 1441 1441 1440 1439 1438 1437 1436 1436 1435 1434 1433 1433 1432 1432 1432 1431 1431 1431 1430 1430 1430
1450 1449 1449 1449 1448 1447 1447 1446 1446 1445 1445 1444 1444 1443 1443 1442 1442 1441 1441 1440 1439 1438 1438 1437 1436 1435 1434 1433 1432 1431 1430 1429 1428 1428 1428 1427 1427 1427 1427 1426 1426 1426 1425